Location: Albany
(35.0170°S, 117.8920°E)
Time: 00:56:00
(UTC+08:00)

S-56A Canister/Altair - Pass Details

Date: 21 June 2021
Orbit: 632 x 2501 km, 38.9° (Epoch: 24 July)

Event Time Altitude Azimuth Distance (km) Brightness Sun altitude
Rises 18:46:18 0° 262° (W) 6,152 13.3 -20.2°
Reaches altitude 10° 18:50:20 10° 260° (W) 5,177 12.7 -21.0°
Maximum altitude 19:05:42 78° 173° (S) 2,337 9.8 -24.1°
Enters shadow 19:12:08 37° 92° (E) 2,895 9.8 -25.4°
